This is the latest recevied weather packets stored in our database for station/object N1IJV-10. If no packets are shown the sender has not sent any weather packets the latest 10 day(s).
| Time | Temp. | Humidity | Pressure | Rain* | Wind** | Luminosity | Snow |
|---|---|---|---|---|---|---|---|
| 1777489646 | 12.78° C | 67% | 1013.2 hPa | 0 mm | - | 841 W/m² | - |
| 1777489341 | 12.22° C | 70% | 1013.2 hPa | 0 mm | - | 185 W/m² | - |
| 1777489039 | 12.78° C | 70% | 1013.3 hPa | 0 mm | - | 84 W/m² | - |
| 1777488735 | 12.78° C | 68% | 1013.3 hPa | 0 mm | - | 146 W/m² | - |
| 1777488433 | 12.78° C | 67% | 1013.3 hPa | 0 mm | - | 180 W/m² | - |
| 1777488132 | 13.33° C | 68% | 1013 hPa | 0 mm | - | 808 W/m² | - |
| 1777487829 | 12.22° C | 70% | 1013.2 hPa | 0 mm | - | 789 W/m² | - |
| 1777487527 | 11.67° C | 69% | 1013.1 hPa | 0 mm | - | 244 W/m² | - |
| 1777487224 | 11.67° C | 70% | 1013.1 hPa | 0 mm | - | 147 W/m² | - |
| 1777486920 | 11.67° C | 69% | 1013.3 hPa | 0 mm | - | 56 W/m² | - |
| 1777486616 | 11.67° C | 70% | 1013.1 hPa | 0 mm | - | 81 W/m² | - |
| 1777486315 | 11.67° C | 68% | 1013.2 hPa | 0 mm | - | 150 W/m² | - |
| 1777486012 | 11.67° C | 71% | 1013.3 hPa | 0 mm | - | 125 W/m² | - |
| 1777485708 | 11.67° C | 69% | 1013.1 hPa | 0 mm | - | 114 W/m² | - |
| 1777485404 | 11.67° C | 70% | 1013.1 hPa | 0 mm | - | 81 W/m² | - |
| 1777485099 | 12.22° C | 69% | 1013.1 hPa | 0 mm | - | 73 W/m² | - |
| 1777484797 | 12.22° C | 68% | 1013 hPa | 0 mm | - | 140 W/m² | - |
| 1777484493 | 12.78° C | 70% | 1013 hPa | 0 mm | - | 135 W/m² | - |
| 1777484191 | 12.78° C | 72% | 1012.9 hPa | 0 mm | - | 157 W/m² | - |
| 1777483886 | 12.78° C | 69% | 1012.6 hPa | 0 mm | - | 141 W/m² | - |
| 1777483583 | 12.78° C | 68% | 1013.1 hPa | 0 mm | - | 183 W/m² | - |
| 1777483282 | 12.78° C | 68% | 1012.8 hPa | 0 mm | - | 810 W/m² | - |
| 1777482979 | 12.78° C | 71% | 1013.1 hPa | 0 mm | - | 234 W/m² | - |
| 1777482676 | 13.33° C | 70% | 1012.9 hPa | 0 mm | - | 103 W/m² | - |
| 1777482372 | 12.78° C | 68% | 1013 hPa | 0 mm | - | 206 W/m² | - |
* Rain latest hour (hover to see other rain measurements)
** Current wind speed in m/s (hover to see current wind gust speed)